Time,TemperatureF,DewpointF,PressureIn,WindDirection,WindDirectionDegrees,WindSpeedMPH,WindSpeedGustMPH,Humidity,HourlyPrecipIn,Conditions,Clouds,dailyrainin,SoftwareType,DateUTC
2013-01-12 00:00:00,33.9,32.9,30.23,SE,128,2.0,20.0,96,0.00,,,0.01,Wunderground v.1.15,2013-01-12 05:00:00,
2013-01-12 00:01:00,34.0,33.0,30.23,ESE,121,2.0,20.0,96,0.00,,,0.01,Wunderground v.1.15,2013-01-12 05:01:00,
2013-01-12 00:03:00,34.1,33.1,30.23,SE,127,2.0,20.0,96,0.00,,,0.00,Wunderground v.1.15,2013-01-12 05:03:00,
2013-01-12 00:04:00,34.1,33.1,30.23,SE,128,2.0,20.0,96,0.00,,,0.00,Wunderground v.1.15,2013-01-12 05:04:00,
2013-01-12 00:09:00,34.3,33.3,30.22,SE,130,2.0,20.0,96,0.00,,,0.00,Wunderground v.1.15,2013-01-12 05:09:00,
2013-01-12 00:14:00,34.3,33.3,30.22,SE,133,2.0,20.0,96,0.00,,,0.00,Wunderground v.1.15,2013-01-12 05:14:00,
2013-01-12 00:19:00,34.4,33.4,30.22,ESE,123,3.0,20.0,96,0.00,,,0.00,Wunderground v.1.15,2013-01-12 05:19:00,
2013-01-12 00:24:00,34.4,33.4,30.22,SE,125,3.0,20.0,96,0.00,,,0.00,Wunderground v.1.15,2013-01-12 05:24:00,
2013-01-12 00:29:00,34.3,33.3,30.21,ESE,117,3.0,20.0,96,0.00,,,0.01,Wunderground v.1.15,2013-01-12 05:29:00,
2013-01-12 00:34:00,34.4,33.4,30.21,SE,141,3.0,20.0,96,0.00,,,0.01,Wunderground v.1.15,2013-01-12 05:34:00,
2013-01-12 00:39:00,34.4,33.4,30.21,SE,133,3.0,20.0,96,0.00,,,0.01,Wunderground v.1.15,2013-01-12 05:39:00,
2013-01-12 00:44:00,34.4,33.4,30.21,SE,133,3.0,20.0,96,0.00,,,0.01,Wunderground v.1.15,2013-01-12 05:44:00,
2013-01-12 00:49:00,34.4,33.4,30.21,ESE,116,2.0,20.0,96,0.00,,,0.01,Wunderground v.1.15,2013-01-12 05:49:00,
2013-01-12 00:55:00,34.4,33.4,30.21,SE,141,3.0,20.0,96,0.00,,,0.01,Wunderground v.1.15,2013-01-12 05:55:00,
2013-01-12 01:00:00,34.4,33.4,30.20,SE,130,3.0,3.0,96,0.00,,,0.01,Wunderground v.1.15,2013-01-12 06:00:00,
2013-01-12 01:06:00,34.3,33.3,30.20,ESE,120,3.0,20.0,96,0.00,,,0.01,Wunderground v.1.15,2013-01-12 06:06:00,
2013-01-12 01:11:00,34.2,33.2,30.19,ESE,106,3.0,20.0,96,0.00,,,0.01,Wunderground v.1.15,2013-01-12 06:11:00,
2013-01-12 01:16:00,34.3,33.3,30.19,ESE,115,3.0,20.0,96,0.00,,,0.01,Wunderground v.1.15,2013-01-12 06:16:00,
2013-01-12 01:21:00,34.3,33.3,30.19,ESE,119,3.0,20.0,96,0.00,,,0.01,Wunderground v.1.15,2013-01-12 06:21:00,
2013-01-12 01:26:00,34.3,33.3,30.19,SE,126,2.0,20.0,96,0.00,,,0.01,Wunderground v.1.15,2013-01-12 06:26:00,
2013-01-12 01:31:00,34.4,33.4,30.20,SE,126,2.0,20.0,96,0.00,,,0.01,Wunderground v.1.15,2013-01-12 06:31:00,
2013-01-12 01:37:00,34.4,33.4,30.20,ESE,107,2.0,20.0,96,0.00,,,0.01,Wunderground v.1.15,2013-01-12 06:37:00,
2013-01-12 01:42:00,34.4,33.4,30.20,ESE,123,3.0,20.0,96,0.00,,,0.01,Wunderground v.1.15,2013-01-12 06:42:00,
2013-01-12 01:47:00,34.4,33.4,30.20,SE,134,2.0,20.0,96,0.00,,,0.01,Wunderground v.1.15,2013-01-12 06:47:00,
2013-01-12 01:52:00,34.4,33.4,30.20,ESE,117,3.0,20.0,96,0.00,,,0.01,Wunderground v.1.15,2013-01-12 06:52:00,
2013-01-12 01:57:00,34.4,33.4,30.20,SE,128,3.0,20.0,96,0.00,,,0.01,Wunderground v.1.15,2013-01-12 06:57:00,
2013-01-12 02:02:00,34.4,33.4,30.20,ESE,119,2.0,20.0,96,0.00,,,0.01,Wunderground v.1.15,2013-01-12 07:02:00,
2013-01-12 02:07:00,34.4,33.4,30.20,ESE,119,2.0,20.0,96,0.00,,,0.01,Wunderground v.1.15,2013-01-12 07:07:00,
2013-01-12 02:12:00,34.4,33.4,30.20,ESE,119,2.0,20.0,96,0.00,,,0.01,Wunderground v.1.15,2013-01-12 07:12:00,
2013-01-12 02:18:00,34.4,33.4,30.20,ESE,121,2.0,20.0,96,0.00,,,0.01,Wunderground v.1.15,2013-01-12 07:18:00,
2013-01-12 02:24:00,34.4,33.4,30.20,SE,126,2.0,20.0,96,0.00,,,0.01,Wunderground v.1.15,2013-01-12 07:24:00,
2013-01-12 02:29:00,34.4,33.4,30.20,ESE,115,2.0,20.0,96,0.00,,,0.01,Wunderground v.1.15,2013-01-12 07:29:00,
2013-01-12 02:34:00,34.4,33.4,30.20,ESE,112,2.0,20.0,96,0.00,,,0.01,Wunderground v.1.15,2013-01-12 07:34:00,
2013-01-12 02:39:00,34.4,33.4,30.19,ESE,119,2.0,20.0,96,0.00,,,0.01,Wunderground v.1.15,2013-01-12 07:39:00,
2013-01-12 02:44:00,34.4,33.4,30.18,ESE,119,3.0,20.0,96,0.00,,,0.01,Wunderground v.1.15,2013-01-12 07:44:00,
2013-01-12 02:49:00,34.4,33.4,30.18,ESE,121,3.0,20.0,96,0.00,,,0.01,Wunderground v.1.15,2013-01-12 07:49:00,
2013-01-12 02:54:00,34.4,33.4,30.17,SE,126,2.0,20.0,96,0.00,,,0.01,Wunderground v.1.15,2013-01-12 07:54:00,
2013-01-12 02:59:00,34.4,33.4,30.17,ESE,107,2.0,20.0,96,0.00,,,0.01,Wunderground v.1.15,2013-01-12 07:59:00,
2013-01-12 03:04:00,34.4,33.4,30.17,ESE,107,2.0,20.0,96,0.00,,,0.01,Wunderground v.1.15,2013-01-12 08:04:00,
2013-01-12 03:09:00,34.4,33.4,30.17,ESE,107,1.0,20.0,96,0.00,,,0.01,Wunderground v.1.15,2013-01-12 08:09:00,
2013-01-12 03:15:00,34.6,33.6,30.17,ESE,115,2.0,20.0,96,0.00,,,0.01,Wunderground v.1.15,2013-01-12 08:15:00,
2013-01-12 03:20:00,34.6,33.8,30.17,ESE,122,2.0,20.0,97,0.00,,,0.01,Wunderground v.1.15,2013-01-12 08:20:00,
2013-01-12 03:25:00,34.6,33.6,30.17,ESE,107,2.0,20.0,96,0.00,,,0.01,Wunderground v.1.15,2013-01-12 08:25:00,
2013-01-12 03:30:00,34.4,33.4,30.17,SE,125,2.0,2.0,96,0.00,,,0.01,Wunderground v.1.15,2013-01-12 08:30:00,
2013-01-12 03:35:00,34.5,33.5,30.18,ESE,122,2.0,20.0,96,0.00,,,0.01,Wunderground v.1.15,2013-01-12 08:35:00,
2013-01-12 03:40:00,34.6,33.6,30.18,SE,125,2.0,20.0,96,0.00,,,0.01,Wunderground v.1.15,2013-01-12 08:40:00,
2013-01-12 03:45:00,34.7,33.9,30.18,ESE,121,2.0,20.0,97,0.00,,,0.01,Wunderground v.1.15,2013-01-12 08:45:00,
2013-01-12 03:50:00,34.9,34.1,30.17,SE,130,2.0,20.0,97,0.00,,,0.01,Wunderground v.1.15,2013-01-12 08:50:00,
2013-01-12 03:56:00,34.8,34.0,30.17,SE,128,3.0,20.0,97,0.00,,,0.01,Wunderground v.1.15,2013-01-12 08:56:00,
2013-01-12 04:02:00,34.6,33.8,30.17,SE,141,3.0,20.0,97,0.00,,,0.01,Wunderground v.1.15,2013-01-12 09:02:00,
2013-01-12 04:07:00,34.8,34.0,30.17,SE,140,3.0,20.0,97,0.00,,,0.01,Wunderground v.1.15,2013-01-12 09:07:00,
2013-01-12 04:12:00,34.7,33.9,30.17,ESE,123,3.0,20.0,97,0.00,,,0.01,Wunderground v.1.15,2013-01-12 09:12:00,
2013-01-12 04:17:00,34.6,33.8,30.17,SE,136,2.0,20.0,97,0.00,,,0.01,Wunderground v.1.15,2013-01-12 09:17:00,
2013-01-12 04:22:00,34.7,33.9,30.17,ESE,122,2.0,20.0,97,0.00,,,0.01,Wunderground v.1.15,2013-01-12 09:22:00,
2013-01-12 04:27:00,34.8,34.0,30.17,SE,124,2.0,20.0,97,0.00,,,0.01,Wunderground v.1.15,2013-01-12 09:27:00,
2013-01-12 04:32:00,34.9,34.1,30.17,ESE,123,2.0,20.0,97,0.00,,,0.01,Wunderground v.1.15,2013-01-12 09:32:00,
2013-01-12 04:37:00,34.9,34.1,30.17,ESE,123,1.0,20.0,97,0.00,,,0.01,Wunderground v.1.15,2013-01-12 09:37:00,
2013-01-12 04:42:00,35.0,34.2,30.17,ESE,123,1.0,20.0,97,0.00,,,0.01,Wunderground v.1.15,2013-01-12 09:42:00,
2013-01-12 04:47:00,35.0,34.2,30.18,ESE,123,1.0,20.0,97,0.00,,,0.01,Wunderground v.1.15,2013-01-12 09:47:00,
2013-01-12 04:53:00,34.9,34.1,30.18,ESE,123,0.0,20.0,97,0.00,,,0.01,Wunderground v.1.15,2013-01-12 09:53:00,
2013-01-12 04:58:00,35.0,34.2,30.18,ESE,123,0.0,20.0,97,0.00,,,0.01,Wunderground v.1.15,2013-01-12 09:58:00,
2013-01-12 05:03:00,35.1,34.3,30.18,ESE,123,1.0,20.0,97,0.00,,,0.01,Wunderground v.1.15,2013-01-12 10:03:00,
2013-01-12 05:09:00,35.1,34.3,30.17,ESE,123,2.0,20.0,97,0.00,,,0.01,Wunderground v.1.15,2013-01-12 10:09:00,
2013-01-12 05:14:00,34.9,34.1,30.17,ESE,117,2.0,20.0,97,0.00,,,0.01,Wunderground v.1.15,2013-01-12 10:14:00,
2013-01-12 05:19:00,34.6,33.8,30.16,ESE,119,2.0,20.0,97,0.00,,,0.01,Wunderground v.1.15,2013-01-12 10:19:00,
2013-01-12 05:24:00,34.4,33.6,30.16,ESE,119,1.0,20.0,97,0.00,,,0.01,Wunderground v.1.15,2013-01-12 10:24:00,
2013-01-12 05:29:00,34.4,33.6,30.16,ESE,119,2.0,20.0,97,0.00,,,0.01,Wunderground v.1.15,2013-01-12 10:29:00,
2013-01-12 05:34:00,34.4,33.6,30.16,SE,133,3.0,20.0,97,0.00,,,0.01,Wunderground v.1.15,2013-01-12 10:34:00,
2013-01-12 05:40:00,34.4,33.6,30.16,ESE,123,2.0,2.0,97,0.00,,,0.01,Wunderground v.1.15,2013-01-12 10:40:00,
2013-01-12 05:45:00,34.4,33.6,30.16,SE,126,2.0,20.0,97,0.00,,,0.01,Wunderground v.1.15,2013-01-12 10:45:00,
2013-01-12 05:50:00,34.4,33.6,30.16,ESE,118,2.0,20.0,97,0.00,,,0.01,Wunderground v.1.15,2013-01-12 10:50:00,
2013-01-12 05:55:00,34.4,33.6,30.16,ESE,120,3.0,20.0,97,0.00,,,0.01,Wunderground v.1.15,2013-01-12 10:55:00,
2013-01-12 06:00:00,34.7,33.9,30.16,ESE,103,3.0,20.0,97,0.00,,,0.01,Wunderground v.1.15,2013-01-12 11:00:00,
2013-01-12 06:05:00,34.7,33.9,30.17,ESE,106,2.0,20.0,97,0.00,,,0.01,Wunderground v.1.15,2013-01-12 11:05:00,
2013-01-12 06:10:00,34.8,34.0,30.17,ESE,107,2.0,2.0,97,0.00,,,0.01,Wunderground v.1.15,2013-01-12 11:10:00,
2013-01-12 06:15:00,35.0,34.2,30.18,ESE,110,1.0,20.0,97,0.00,,,0.01,Wunderground v.1.15,2013-01-12 11:15:00,
2013-01-12 06:20:00,35.1,34.3,30.18,ESE,110,1.0,20.0,97,0.00,,,0.01,Wunderground v.1.15,2013-01-12 11:20:00,
2013-01-12 06:25:00,35.1,34.3,30.18,SE,129,1.0,20.0,97,0.00,,,0.01,Wunderground v.1.15,2013-01-12 11:25:00,
2013-01-12 06:30:00,35.2,34.4,30.18,SE,146,1.0,1.0,97,0.00,,,0.01,Wunderground v.1.15,2013-01-12 11:30:00,
2013-01-12 06:36:00,35.3,34.5,30.18,SE,129,1.0,20.0,97,0.00,,,0.02,Wunderground v.1.15,2013-01-12 11:36:00,
2013-01-12 06:41:00,35.3,34.5,30.19,ESE,121,1.0,20.0,97,0.00,,,0.02,Wunderground v.1.15,2013-01-12 11:41:00,
2013-01-12 06:46:00,35.3,34.5,30.19,ESE,121,1.0,20.0,97,0.00,,,0.02,Wunderground v.1.15,2013-01-12 11:46:00,
2013-01-12 06:51:00,35.3,34.5,30.19,ESE,121,1.0,20.0,97,0.00,,,0.02,Wunderground v.1.15,2013-01-12 11:51:00,
2013-01-12 06:56:00,35.3,34.5,30.20,ESE,121,1.0,20.0,97,0.00,,,0.02,Wunderground v.1.15,2013-01-12 11:56:00,
2013-01-12 07:01:00,35.4,34.6,30.20,ESE,121,0.0,20.0,97,0.00,,,0.02,Wunderground v.1.15,2013-01-12 12:01:00,
2013-01-12 07:06:00,35.5,34.7,30.20,ESE,121,0.0,20.0,97,0.00,,,0.02,Wunderground v.1.15,2013-01-12 12:06:00,
2013-01-12 07:11:00,35.4,34.6,30.20,ESE,121,0.0,20.0,97,0.00,,,0.02,Wunderground v.1.15,2013-01-12 12:11:00,
2013-01-12 07:16:00,35.5,34.7,30.20,ESE,121,0.0,20.0,97,0.00,,,0.02,Wunderground v.1.15,2013-01-12 12:16:00,
2013-01-12 07:22:00,35.5,34.7,30.19,ESE,120,0.0,20.0,97,0.00,,,0.02,Wunderground v.1.15,2013-01-12 12:22:00,
2013-01-12 07:27:00,35.5,34.7,30.20,ESE,120,1.0,20.0,97,0.00,,,0.02,Wunderground v.1.15,2013-01-12 12:27:00,
2013-01-12 07:32:00,35.5,34.7,30.20,ESE,121,1.0,20.0,97,0.00,,,0.02,Wunderground v.1.15,2013-01-12 12:32:00,
2013-01-12 07:37:00,35.5,34.7,30.19,SE,134,1.0,20.0,97,0.00,,,0.02,Wunderground v.1.15,2013-01-12 12:37:00,
2013-01-12 07:42:00,35.4,34.6,30.19,SE,134,2.0,20.0,97,0.00,,,0.02,Wunderground v.1.15,2013-01-12 12:42:00,
2013-01-12 07:47:00,35.3,34.5,30.19,SE,124,2.0,20.0,97,0.00,,,0.02,Wunderground v.1.15,2013-01-12 12:47:00,
2013-01-12 07:52:00,35.1,34.3,30.19,SE,125,2.0,20.0,97,0.00,,,0.02,Wunderground v.1.15,2013-01-12 12:52:00,
2013-01-12 07:57:00,35.1,34.3,30.19,SE,126,1.0,20.0,97,0.00,,,0.02,Wunderground v.1.15,2013-01-12 12:57:00,
2013-01-12 08:02:00,35.1,34.3,30.20,SE,126,1.0,20.0,97,0.00,,,0.02,Wunderground v.1.15,2013-01-12 13:02:00,
2013-01-12 08:07:00,35.1,34.3,30.20,SE,125,0.0,20.0,97,0.00,,,0.02,Wunderground v.1.15,2013-01-12 13:07:00,
2013-01-12 08:12:00,35.1,34.3,30.20,SE,126,0.0,20.0,97,0.00,,,0.02,Wunderground v.1.15,2013-01-12 13:12:00,
2013-01-12 08:17:00,35.2,34.4,30.20,SE,125,0.0,20.0,97,0.00,,,0.02,Wunderground v.1.15,2013-01-12 13:17:00,
2013-01-12 08:23:00,35.2,34.4,30.20,SE,125,0.0,20.0,97,0.00,,,0.02,Wunderground v.1.15,2013-01-12 13:23:00,
2013-01-12 08:28:00,35.4,34.6,30.20,SE,126,0.0,20.0,97,0.00,,,0.02,Wunderground v.1.15,2013-01-12 13:28:00,
2013-01-12 08:33:00,35.7,34.9,30.20,SE,126,0.0,20.0,97,0.00,,,0.02,Wunderground v.1.15,2013-01-12 13:33:00,
2013-01-12 08:38:00,36.0,35.2,30.19,SE,126,1.0,20.0,97,0.00,,,0.02,Wunderground v.1.15,2013-01-12 13:38:00,
2013-01-12 08:43:00,36.1,35.3,30.20,ESE,123,1.0,20.0,97,0.00,,,0.02,Wunderground v.1.15,2013-01-12 13:43:00,
2013-01-12 08:48:00,36.2,35.4,30.20,SE,124,1.0,20.0,97,0.00,,,0.02,Wunderground v.1.15,2013-01-12 13:48:00,
2013-01-12 08:54:00,36.3,35.5,30.20,ESE,123,0.0,20.0,97,0.00,,,0.02,Wunderground v.1.15,2013-01-12 13:54:00,
2013-01-12 08:59:00,36.3,35.5,30.20,ESE,123,0.0,20.0,97,0.00,,,0.02,Wunderground v.1.15,2013-01-12 13:59:00,
2013-01-12 09:05:00,36.3,35.5,30.20,ESE,123,0.0,20.0,97,0.00,,,0.02,Wunderground v.1.15,2013-01-12 14:05:00,
2013-01-12 09:10:00,36.4,35.6,30.21,ESE,123,0.0,20.0,97,0.00,,,0.02,Wunderground v.1.15,2013-01-12 14:10:00,
2013-01-12 09:15:00,36.5,35.7,30.21,ESE,123,0.0,20.0,97,0.00,,,0.02,Wunderground v.1.15,2013-01-12 14:15:00,
2013-01-12 09:20:00,36.7,35.9,30.21,ESE,123,0.0,20.0,97,0.00,,,0.02,Wunderground v.1.15,2013-01-12 14:20:00,
2013-01-12 09:25:00,36.8,36.0,30.21,ESE,123,0.0,20.0,97,0.00,,,0.02,Wunderground v.1.15,2013-01-12 14:25:00,
2013-01-12 09:30:00,36.9,36.1,30.20,ESE,123,1.0,20.0,97,0.00,,,0.02,Wunderground v.1.15,2013-01-12 14:30:00,
2013-01-12 09:35:00,36.9,36.1,30.20,ESE,123,1.0,20.0,97,0.00,,,0.02,Wunderground v.1.15,2013-01-12 14:35:00,
2013-01-12 09:40:00,36.9,36.1,30.20,ESE,123,1.0,1.0,97,0.00,,,0.02,Wunderground v.1.15,2013-01-12 14:40:00,
2013-01-12 09:46:00,36.8,36.0,30.21,ESE,123,0.0,20.0,97,0.00,,,0.02,Wunderground v.1.15,2013-01-12 14:46:00,
2013-01-12 09:51:00,36.8,36.0,30.21,ESE,123,0.0,20.0,97,0.00,,,0.02,Wunderground v.1.15,2013-01-12 14:51:00,
2013-01-12 09:56:00,36.9,36.1,30.21,ESE,123,0.0,20.0,97,0.00,,,0.02,Wunderground v.1.15,2013-01-12 14:56:00,
2013-01-12 10:01:00,37.0,36.2,30.20,ESE,123,1.0,20.0,97,0.00,,,0.02,Wunderground v.1.15,2013-01-12 15:01:00,
2013-01-12 10:06:00,37.1,36.3,30.20,ESE,123,1.0,20.0,97,0.00,,,0.02,Wunderground v.1.15,2013-01-12 15:06:00,
2013-01-12 10:11:00,37.3,36.5,30.20,ESE,123,1.0,20.0,97,0.00,,,0.02,Wunderground v.1.15,2013-01-12 15:11:00,
2013-01-12 10:16:00,37.3,36.5,30.20,ESE,123,1.0,20.0,97,0.00,,,0.02,Wunderground v.1.15,2013-01-12 15:16:00,
2013-01-12 10:21:00,37.3,36.5,30.19,ESE,115,1.0,20.0,97,0.00,,,0.02,Wunderground v.1.15,2013-01-12 15:21:00,
2013-01-12 10:26:00,37.3,36.5,30.19,SE,137,2.0,20.0,97,0.00,,,0.02,Wunderground v.1.15,2013-01-12 15:26:00,
2013-01-12 10:31:00,37.3,36.5,30.20,SE,140,2.0,20.0,97,0.00,,,0.02,Wunderground v.1.15,2013-01-12 15:31:00,
2013-01-12 10:36:00,37.4,36.6,30.19,SE,136,1.0,20.0,97,0.00,,,0.02,Wunderground v.1.15,2013-01-12 15:36:00,
2013-01-12 10:42:00,37.6,36.8,30.19,SE,136,1.0,20.0,97,0.00,,,0.02,Wunderground v.1.15,2013-01-12 15:42:00,
2013-01-12 10:47:00,37.6,36.8,30.19,SE,136,1.0,20.0,97,0.00,,,0.02,Wunderground v.1.15,2013-01-12 15:47:00,
2013-01-12 10:52:00,37.7,36.9,30.18,SE,136,1.0,20.0,97,0.00,,,0.02,Wunderground v.1.15,2013-01-12 15:52:00,
2013-01-12 10:57:00,37.8,37.0,30.18,SE,136,0.0,20.0,97,0.00,,,0.02,Wunderground v.1.15,2013-01-12 15:57:00,
2013-01-12 11:03:00,37.9,37.1,30.19,SE,136,0.0,20.0,97,0.00,,,0.02,Wunderground v.1.15,2013-01-12 16:03:00,
2013-01-12 11:08:00,38.0,37.2,30.19,SE,136,0.0,20.0,97,0.00,,,0.02,Wunderground v.1.15,2013-01-12 16:08:00,
2013-01-12 11:13:00,38.0,37.2,30.18,SE,136,1.0,20.0,97,0.00,,,0.02,Wunderground v.1.15,2013-01-12 16:13:00,
2013-01-12 11:18:00,38.1,37.3,30.18,SE,136,1.0,20.0,97,0.00,,,0.02,Wunderground v.1.15,2013-01-12 16:18:00,
2013-01-12 11:23:00,38.2,37.4,30.16,SE,136,1.0,20.0,97,0.00,,,0.02,Wunderground v.1.15,2013-01-12 16:23:00,
2013-01-12 11:28:00,38.3,37.5,30.16,SE,136,1.0,20.0,97,0.00,,,0.02,Wunderground v.1.15,2013-01-12 16:28:00,
2013-01-12 11:33:00,38.2,37.4,30.16,SE,134,1.0,20.0,97,0.00,,,0.02,Wunderground v.1.15,2013-01-12 16:33:00,
2013-01-12 11:39:00,38.3,37.5,30.15,SE,134,1.0,20.0,97,0.00,,,0.02,Wunderground v.1.15,2013-01-12 16:39:00,
2013-01-12 11:44:00,38.2,37.4,30.16,SE,135,1.0,20.0,97,0.00,,,0.02,Wunderground v.1.15,2013-01-12 16:44:00,
2013-01-12 11:49:00,38.3,37.5,30.17,SE,134,1.0,20.0,97,0.00,,,0.02,Wunderground v.1.15,2013-01-12 16:49:00,
2013-01-12 11:54:00,38.3,37.5,30.16,SE,135,0.0,20.0,97,0.00,,,0.02,Wunderground v.1.15,2013-01-12 16:54:00,
2013-01-12 11:59:00,38.4,37.6,30.14,SE,138,1.0,20.0,97,0.00,,,0.02,Wunderground v.1.15,2013-01-12 16:59:00,
2013-01-12 12:04:00,38.4,37.6,30.15,SE,138,1.0,20.0,97,0.00,,,0.02,Wunderground v.1.15,2013-01-12 17:04:00,
2013-01-12 12:09:00,38.4,37.6,30.14,SE,139,1.0,20.0,97,0.00,,,0.02,Wunderground v.1.15,2013-01-12 17:09:00,
2013-01-12 12:14:00,38.5,37.7,30.15,SE,139,1.0,20.0,97,0.00,,,0.02,Wunderground v.1.15,2013-01-12 17:14:00,
2013-01-12 12:19:00,38.6,37.8,30.15,SE,139,0.0,20.0,97,0.00,,,0.02,Wunderground v.1.15,2013-01-12 17:19:00,
2013-01-12 12:25:00,38.7,37.9,30.17,SE,139,0.0,20.0,97,0.00,,,0.02,Wunderground v.1.15,2013-01-12 17:25:00,
2013-01-12 12:30:00,38.7,37.9,30.16,SE,139,1.0,1.0,97,0.00,,,0.02,Wunderground v.1.15,2013-01-12 17:30:00,
2013-01-12 12:35:00,38.8,38.0,30.16,SE,138,0.0,20.0,97,0.00,,,0.02,Wunderground v.1.15,2013-01-12 17:35:00,
2013-01-12 12:41:00,39.1,38.3,30.16,SE,139,1.0,20.0,97,0.00,,,0.02,Wunderground v.1.15,2013-01-12 17:41:00,
2013-01-12 12:46:00,39.2,38.4,30.16,SE,138,2.0,20.0,97,0.00,,,0.02,Wunderground v.1.15,2013-01-12 17:46:00,
2013-01-12 12:51:00,39.3,38.5,30.16,SE,138,1.0,3.0,97,0.00,,,0.02,Wunderground v.1.15,2013-01-12 17:51:00,
2013-01-12 12:56:00,39.4,38.6,30.16,SE,138,1.0,20.0,97,0.00,,,0.02,Wunderground v.1.15,2013-01-12 17:56:00,
2013-01-12 13:02:00,39.5,38.7,30.17,SE,138,1.0,20.0,97,0.00,,,0.02,Wunderground v.1.15,2013-01-12 18:02:00,
2013-01-12 13:07:00,39.5,38.7,30.16,SE,140,2.0,20.0,97,0.00,,,0.02,Wunderground v.1.15,2013-01-12 18:07:00,
2013-01-12 13:12:00,39.4,38.6,30.17,SE,136,1.0,20.0,97,0.00,,,0.02,Wunderground v.1.15,2013-01-12 18:12:00,
2013-01-12 13:17:00,39.4,38.6,30.17,SE,136,1.0,20.0,97,0.00,,,0.02,Wunderground v.1.15,2013-01-12 18:17:00,
2013-01-12 13:22:00,39.2,38.4,30.18,SE,146,1.0,20.0,97,0.00,,,0.02,Wunderground v.1.15,2013-01-12 18:22:00,
2013-01-12 13:27:00,38.9,38.1,30.18,SSE,166,1.0,20.0,97,0.00,,,0.02,Wunderground v.1.15,2013-01-12 18:27:00,
2013-01-12 13:32:00,38.9,38.1,30.17,SSE,166,1.0,20.0,97,0.00,,,0.02,Wunderground v.1.15,2013-01-12 18:32:00,
2013-01-12 13:37:00,39.2,38.4,30.17,SSE,166,0.0,20.0,97,0.00,,,0.02,Wunderground v.1.15,2013-01-12 18:37:00,
2013-01-12 13:42:00,39.2,38.4,30.16,SSE,166,0.0,20.0,97,0.00,,,0.02,Wunderground v.1.15,2013-01-12 18:42:00,
2013-01-12 13:47:00,39.3,38.5,30.17,SSE,166,0.0,20.0,97,0.00,,,0.02,Wunderground v.1.15,2013-01-12 18:47:00,
2013-01-12 13:52:00,39.4,38.6,30.17,SSE,166,0.0,20.0,97,0.00,,,0.02,Wunderground v.1.15,2013-01-12 18:52:00,
2013-01-12 13:57:00,39.6,38.8,30.17,SSE,165,0.0,20.0,97,0.00,,,0.02,Wunderground v.1.15,2013-01-12 18:57:00,
2013-01-12 14:03:00,39.8,39.0,30.17,SSE,164,0.0,20.0,97,0.00,,,0.02,Wunderground v.1.15,2013-01-12 19:03:00,
2013-01-12 14:08:00,40.0,39.2,30.17,SSE,164,1.0,20.0,97,0.00,,,0.02,Wunderground v.1.15,2013-01-12 19:08:00,
2013-01-12 14:13:00,40.1,39.3,30.17,SSE,165,0.0,20.0,97,0.00,,,0.02,Wunderground v.1.15,2013-01-12 19:13:00,
2013-01-12 14:18:00,40.0,39.2,30.17,SSE,164,0.0,20.0,97,0.00,,,0.02,Wunderground v.1.15,2013-01-12 19:18:00,
2013-01-12 14:23:00,40.0,39.2,30.17,SSE,165,0.0,20.0,97,0.00,,,0.02,Wunderground v.1.15,2013-01-12 19:23:00,
2013-01-12 14:28:00,40.1,39.3,30.17,SSE,164,0.0,20.0,97,0.00,,,0.02,Wunderground v.1.15,2013-01-12 19:28:00,
2013-01-12 14:33:00,40.2,39.4,30.17,SSE,165,0.0,20.0,97,0.00,,,0.02,Wunderground v.1.15,2013-01-12 19:33:00,
2013-01-12 14:39:00,40.3,39.5,30.16,SSE,159,1.0,20.0,97,0.00,,,0.02,Wunderground v.1.15,2013-01-12 19:39:00,
2013-01-12 14:44:00,40.3,39.5,30.16,SSE,157,1.0,20.0,97,0.00,,,0.02,Wunderground v.1.15,2013-01-12 19:44:00,
2013-01-12 14:49:00,40.2,39.4,30.17,SSE,157,1.0,20.0,97,0.00,,,0.02,Wunderground v.1.15,2013-01-12 19:49:00,
2013-01-12 14:54:00,40.1,39.3,30.17,SSE,157,0.0,20.0,97,0.00,,,0.02,Wunderground v.1.15,2013-01-12 19:54:00,
2013-01-12 15:00:00,40.0,39.2,30.17,SSE,157,0.0,20.0,97,0.00,,,0.02,Wunderground v.1.15,2013-01-12 20:00:00,
2013-01-12 15:05:00,40.1,39.3,30.17,SSE,157,0.0,20.0,97,0.00,,,0.02,Wunderground v.1.15,2013-01-12 20:05:00,
2013-01-12 15:10:00,40.2,39.4,30.17,SSE,157,0.0,20.0,97,0.00,,,0.02,Wunderground v.1.15,2013-01-12 20:10:00,
2013-01-12 15:15:00,40.3,39.5,30.17,SSE,157,0.0,20.0,97,0.00,,,0.02,Wunderground v.1.15,2013-01-12 20:15:00,
2013-01-12 15:20:00,40.3,39.5,30.17,SSE,157,0.0,20.0,97,0.00,,,0.02,Wunderground v.1.15,2013-01-12 20:20:00,
2013-01-12 15:25:00,40.3,39.5,30.18,SSE,157,0.0,20.0,97,0.00,,,0.02,Wunderground v.1.15,2013-01-12 20:25:00,
2013-01-12 15:30:00,40.1,39.3,30.18,SSE,157,0.0,20.0,97,0.00,,,0.02,Wunderground v.1.15,2013-01-12 20:30:00,
2013-01-12 15:35:00,40.0,39.5,30.18,SSE,157,0.0,20.0,98,0.00,,,0.02,Wunderground v.1.15,2013-01-12 20:35:00,
2013-01-12 15:41:00,40.0,39.5,30.18,SSE,157,0.0,20.0,98,0.00,,,0.02,Wunderground v.1.15,2013-01-12 20:41:00,
2013-01-12 15:46:00,39.9,39.4,30.18,SSE,157,0.0,20.0,98,0.00,,,0.02,Wunderground v.1.15,2013-01-12 20:46:00,
2013-01-12 15:51:00,39.9,39.4,30.17,SSE,157,0.0,20.0,98,0.00,,,0.02,Wunderground v.1.15,2013-01-12 20:51:00,
2013-01-12 15:56:00,39.9,39.4,30.17,SSE,157,0.0,20.0,98,0.00,,,0.02,Wunderground v.1.15,2013-01-12 20:56:00,
2013-01-12 16:02:00,40.0,39.5,30.17,SSE,157,0.0,20.0,98,0.00,,,0.02,Wunderground v.1.15,2013-01-12 21:02:00,
2013-01-12 16:07:00,39.9,39.4,30.18,SSE,157,0.0,20.0,98,0.00,,,0.02,Wunderground v.1.15,2013-01-12 21:07:00,
2013-01-12 16:13:00,39.7,38.9,30.17,SSE,157,0.0,20.0,97,0.00,,,0.02,Wunderground v.1.15,2013-01-12 21:13:00,
2013-01-12 16:18:00,39.7,38.9,30.17,SSE,157,0.0,20.0,97,0.00,,,0.02,Wunderground v.1.15,2013-01-12 21:18:00,
2013-01-12 16:23:00,39.8,39.3,30.17,SSE,157,1.0,20.0,98,0.00,,,0.02,Wunderground v.1.15,2013-01-12 21:23:00,
2013-01-12 16:28:00,39.8,39.3,30.17,SSE,157,1.0,20.0,98,0.00,,,0.02,Wunderground v.1.15,2013-01-12 21:28:00,
2013-01-12 16:33:00,39.7,38.9,30.17,SSE,157,0.0,20.0,97,0.00,,,0.02,Wunderground v.1.15,2013-01-12 21:33:00,
2013-01-12 16:38:00,39.3,38.5,30.17,SSE,157,0.0,20.0,97,0.00,,,0.02,Wunderground v.1.15,2013-01-12 21:38:00,
2013-01-12 16:44:00,39.0,38.2,30.17,SSE,157,0.0,20.0,97,0.00,,,0.02,Wunderground v.1.15,2013-01-12 21:44:00,
2013-01-12 16:49:00,39.0,38.2,30.17,SSE,157,0.0,20.0,97,0.00,,,0.02,Wunderground v.1.15,2013-01-12 21:49:00,
2013-01-12 16:54:00,39.0,38.2,30.18,SSE,157,0.0,20.0,97,0.00,,,0.02,Wunderground v.1.15,2013-01-12 21:54:00,
2013-01-12 16:59:00,38.9,38.1,30.18,SSE,157,0.0,20.0,97,0.00,,,0.02,Wunderground v.1.15,2013-01-12 21:59:00,
2013-01-12 17:04:00,38.8,38.0,30.18,SSE,157,0.0,20.0,97,0.00,,,0.02,Wunderground v.1.15,2013-01-12 22:04:00,
2013-01-12 17:09:00,38.8,38.0,30.18,SSE,157,0.0,20.0,97,0.00,,,0.02,Wunderground v.1.15,2013-01-12 22:09:00,
2013-01-12 17:14:00,38.8,38.0,30.18,SSE,157,0.0,20.0,97,0.00,,,0.02,Wunderground v.1.15,2013-01-12 22:14:00,
2013-01-12 17:19:00,38.9,38.1,30.19,SSE,157,0.0,20.0,97,0.00,,,0.02,Wunderground v.1.15,2013-01-12 22:19:00,
2013-01-12 17:25:00,38.5,37.7,30.19,SSE,157,1.0,20.0,97,0.00,,,0.02,Wunderground v.1.15,2013-01-12 22:25:00,
2013-01-12 17:31:00,37.9,37.1,30.20,SSW,199,1.0,20.0,97,0.00,,,0.02,Wunderground v.1.15,2013-01-12 22:31:00,
2013-01-12 17:37:00,37.6,36.8,30.19,SSW,202,2.0,20.0,97,0.00,,,0.02,Wunderground v.1.15,2013-01-12 22:37:00,
2013-01-12 17:42:00,37.8,37.0,30.19,West,273,2.0,20.0,97,0.00,,,0.03,Wunderground v.1.15,2013-01-12 22:42:00,
2013-01-12 17:47:00,37.9,37.1,30.19,West,274,2.0,20.0,97,0.00,,,0.03,Wunderground v.1.15,2013-01-12 22:47:00,
2013-01-12 17:53:00,38.0,37.2,30.19,West,260,1.0,20.0,97,0.00,,,0.03,Wunderground v.1.15,2013-01-12 22:53:00,
2013-01-12 17:58:00,38.1,37.3,30.19,WSW,257,2.0,20.0,97,0.00,,,0.03,Wunderground v.1.15,2013-01-12 22:58:00,
2013-01-12 18:04:00,38.0,37.2,30.18,WSW,257,2.0,20.0,97,0.00,,,0.03,Wunderground v.1.15,2013-01-12 23:04:00,
2013-01-12 18:09:00,38.2,37.4,30.17,WSW,257,2.0,20.0,97,0.00,,,0.03,Wunderground v.1.15,2013-01-12 23:09:00,
2013-01-12 18:14:00,38.4,37.6,30.17,WSW,258,1.0,20.0,97,0.00,,,0.03,Wunderground v.1.15,2013-01-12 23:14:00,
2013-01-12 18:20:00,38.6,37.8,30.17,WSW,258,1.0,20.0,97,0.00,,,0.03,Wunderground v.1.15,2013-01-12 23:20:00,
2013-01-12 18:25:00,38.6,37.8,30.17,WSW,257,1.0,20.0,97,0.00,,,0.03,Wunderground v.1.15,2013-01-12 23:25:00,
2013-01-12 18:31:00,38.5,37.7,30.17,WSW,258,1.0,20.0,97,0.00,,,0.03,Wunderground v.1.15,2013-01-12 23:31:00,
2013-01-12 18:37:00,38.4,37.6,30.16,WSW,257,0.0,20.0,97,0.00,,,0.03,Wunderground v.1.15,2013-01-12 23:37:00,
2013-01-12 18:42:00,38.3,37.5,30.16,WSW,257,0.0,20.0,97,0.00,,,0.03,Wunderground v.1.15,2013-01-12 23:42:00,
2013-01-12 18:48:00,38.1,37.6,30.16,WSW,258,0.0,20.0,98,0.00,,,0.03,Wunderground v.1.15,2013-01-12 23:48:00,
2013-01-12 18:53:00,38.0,37.5,30.16,WSW,258,0.0,20.0,98,0.00,,,0.03,Wunderground v.1.15,2013-01-12 23:53:00,
2013-01-12 18:59:00,38.1,37.6,30.15,WSW,258,1.0,20.0,98,0.00,,,0.03,Wunderground v.1.15,2013-01-12 23:59:00,
2013-01-12 19:04:00,38.0,37.2,30.15,WSW,257,2.0,20.0,97,0.00,,,0.03,Wunderground v.1.15,2013-01-13 00:04:00,
2013-01-12 19:09:00,37.5,36.7,30.15,West,277,2.0,20.0,97,0.00,,,0.03,Wunderground v.1.15,2013-01-13 00:09:00,
2013-01-12 19:14:00,36.8,36.0,30.16,WSW,247,2.0,20.0,97,0.00,,,0.03,Wunderground v.1.15,2013-01-13 00:14:00,
2013-01-12 19:20:00,37.2,36.4,30.16,WSW,247,2.0,20.0,97,0.00,,,0.03,Wunderground v.1.15,2013-01-13 00:20:00,
2013-01-12 19:25:00,37.8,37.0,30.16,WSW,245,2.0,20.0,97,0.00,,,0.03,Wunderground v.1.15,2013-01-13 00:25:00,
2013-01-12 19:30:00,38.4,37.6,30.15,WSW,244,2.0,20.0,97,0.00,,,0.03,Wunderground v.1.15,2013-01-13 00:30:00,
2013-01-12 19:36:00,38.8,38.3,30.15,SW,234,3.0,20.0,98,0.00,,,0.03,Wunderground v.1.15,2013-01-13 00:36:00,
2013-01-12 19:41:00,38.9,38.4,30.16,SW,233,2.0,20.0,98,0.00,,,0.03,Wunderground v.1.15,2013-01-13 00:41:00,
2013-01-12 19:46:00,39.3,38.8,30.16,SW,230,2.0,20.0,98,0.00,,,0.03,Wunderground v.1.15,2013-01-13 00:46:00,
2013-01-12 19:51:00,39.3,38.8,30.16,West,266,2.0,20.0,98,0.00,,,0.03,Wunderground v.1.15,2013-01-13 00:51:00,
2013-01-12 19:57:00,38.2,37.7,30.16,West,275,2.0,20.0,98,0.00,,,0.03,Wunderground v.1.15,2013-01-13 00:57:00,
2013-01-12 20:02:00,38.3,37.8,30.17,WSW,253,2.0,20.0,98,0.00,,,0.03,Wunderground v.1.15,2013-01-13 01:02:00,
2013-01-12 20:07:00,38.4,37.6,30.17,WSW,245,2.0,20.0,97,0.00,,,0.03,Wunderground v.1.15,2013-01-13 01:07:00,
2013-01-12 20:12:00,38.7,38.2,30.17,SW,229,2.0,20.0,98,0.00,,,0.03,Wunderground v.1.15,2013-01-13 01:12:00,
2013-01-12 20:17:00,39.1,38.3,30.17,SW,236,3.0,20.0,97,0.00,,,0.03,Wunderground v.1.15,2013-01-13 01:17:00,
2013-01-12 20:22:00,39.4,38.9,30.17,SW,234,3.0,20.0,98,0.00,,,0.03,Wunderground v.1.15,2013-01-13 01:22:00,
2013-01-12 20:27:00,39.4,38.9,30.17,WSW,243,3.0,20.0,98,0.00,,,0.03,Wunderground v.1.15,2013-01-13 01:27:00,
2013-01-12 20:33:00,39.2,38.4,30.17,WSW,238,2.0,20.0,97,0.00,,,0.03,Wunderground v.1.15,2013-01-13 01:33:00,
2013-01-12 20:38:00,39.3,38.8,30.16,SW,236,2.0,20.0,98,0.00,,,0.03,Wunderground v.1.15,2013-01-13 01:38:00,
2013-01-12 20:44:00,39.3,38.5,30.16,SW,236,1.0,20.0,97,0.00,,,0.03,Wunderground v.1.15,2013-01-13 01:44:00,
2013-01-12 20:49:00,39.2,38.4,30.16,SW,236,0.0,20.0,97,0.00,,,0.03,Wunderground v.1.15,2013-01-13 01:49:00,
2013-01-12 20:55:00,38.8,38.3,30.16,SW,236,0.0,20.0,98,0.00,,,0.03,Wunderground v.1.15,2013-01-13 01:55:00,
2013-01-12 21:00:00,38.5,37.7,30.16,SW,236,0.0,20.0,97,0.00,,,0.03,Wunderground v.1.15,2013-01-13 02:00:00,
2013-01-12 21:05:00,38.2,37.7,30.16,SW,236,0.0,20.0,98,0.00,,,0.03,Wunderground v.1.15,2013-01-13 02:05:00,
2013-01-12 21:11:00,38.1,37.6,30.17,West,262,1.0,20.0,98,0.00,,,0.03,Wunderground v.1.15,2013-01-13 02:11:00,
2013-01-12 21:16:00,37.7,37.2,30.16,WSW,246,2.0,20.0,98,0.00,,,0.03,Wunderground v.1.15,2013-01-13 02:16:00,
2013-01-12 21:21:00,38.1,37.3,30.16,WSW,246,2.0,20.0,97,0.00,,,0.03,Wunderground v.1.15,2013-01-13 02:21:00,
2013-01-12 21:26:00,38.4,37.9,30.16,WSW,246,1.0,20.0,98,0.00,,,0.03,Wunderground v.1.15,2013-01-13 02:26:00,
2013-01-12 21:31:00,38.5,37.7,30.16,WSW,246,1.0,2.0,97,0.00,,,0.03,Wunderground v.1.15,2013-01-13 02:31:00,
2013-01-12 21:36:00,38.4,37.6,30.16,WSW,246,1.0,20.0,97,0.00,,,0.03,Wunderground v.1.15,2013-01-13 02:36:00,
2013-01-12 21:42:00,38.5,37.7,30.16,WSW,246,1.0,20.0,97,0.00,,,0.03,Wunderground v.1.15,2013-01-13 02:42:00,
2013-01-12 21:47:00,38.6,37.8,30.16,WSW,246,1.0,20.0,97,0.00,,,0.03,Wunderground v.1.15,2013-01-13 02:47:00,
2013-01-12 21:52:00,38.8,38.3,30.16,WSW,245,1.0,20.0,98,0.00,,,0.03,Wunderground v.1.15,2013-01-13 02:52:00,
2013-01-12 21:57:00,38.8,38.3,30.16,WSW,245,1.0,20.0,98,0.00,,,0.03,Wunderground v.1.15,2013-01-13 02:57:00,
2013-01-12 22:02:00,38.8,38.3,30.16,WSW,242,1.0,20.0,98,0.00,,,0.03,Wunderground v.1.15,2013-01-13 03:02:00,
2013-01-12 22:07:00,38.6,37.8,30.16,WSW,241,1.0,20.0,97,0.00,,,0.03,Wunderground v.1.15,2013-01-13 03:07:00,
2013-01-12 22:13:00,38.8,38.3,30.16,WSW,242,1.0,20.0,98,0.00,,,0.03,Wunderground v.1.15,2013-01-13 03:13:00,
2013-01-12 22:18:00,38.8,38.3,30.16,WSW,241,1.0,20.0,98,0.00,,,0.03,Wunderground v.1.15,2013-01-13 03:18:00,
2013-01-12 22:23:00,38.9,38.4,30.15,WSW,242,1.0,20.0,98,0.00,,,0.03,Wunderground v.1.15,2013-01-13 03:23:00,
2013-01-12 22:28:00,38.9,38.4,30.16,WSW,241,0.0,20.0,98,0.00,,,0.03,Wunderground v.1.15,2013-01-13 03:28:00,
2013-01-12 22:33:00,38.8,38.3,30.16,WSW,242,1.0,20.0,98,0.00,,,0.03,Wunderground v.1.15,2013-01-13 03:33:00,
2013-01-12 22:38:00,38.9,38.4,30.16,WSW,241,1.0,20.0,98,0.00,,,0.03,Wunderground v.1.15,2013-01-13 03:38:00,
2013-01-12 22:43:00,38.9,38.4,30.16,SW,234,2.0,20.0,98,0.00,,,0.03,Wunderground v.1.15,2013-01-13 03:43:00,
2013-01-12 22:48:00,38.9,38.4,30.16,SW,233,1.0,20.0,98,0.00,,,0.03,Wunderground v.1.15,2013-01-13 03:48:00,
2013-01-12 22:54:00,38.4,37.6,30.16,SW,236,1.0,20.0,97,0.00,,,0.03,Wunderground v.1.15,2013-01-13 03:54:00,
2013-01-12 23:00:00,37.9,37.1,30.16,West,264,1.0,1.0,97,0.00,,,0.03,Wunderground v.1.15,2013-01-13 04:00:00,
2013-01-12 23:05:00,38.0,37.2,30.16,West,264,1.0,20.0,97,0.00,,,0.03,Wunderground v.1.15,2013-01-13 04:05:00,
2013-01-12 23:10:00,38.4,37.9,30.16,WSW,244,1.0,20.0,98,0.00,,,0.03,Wunderground v.1.15,2013-01-13 04:10:00,
2013-01-12 23:15:00,38.3,37.8,30.16,WSW,244,1.0,20.0,98,0.00,,,0.03,Wunderground v.1.15,2013-01-13 04:15:00,
2013-01-12 23:20:00,38.3,37.8,30.16,WSW,244,1.0,20.0,98,0.00,,,0.03,Wunderground v.1.15,2013-01-13 04:20:00,
2013-01-12 23:25:00,38.6,37.8,30.16,WSW,244,1.0,20.0,97,0.00,,,0.03,Wunderground v.1.15,2013-01-13 04:25:00,
2013-01-12 23:31:00,38.9,38.4,30.16,SW,227,1.0,20.0,98,0.00,,,0.03,Wunderground v.1.15,2013-01-13 04:31:00,
2013-01-12 23:36:00,39.2,38.7,30.16,WSW,254,2.0,20.0,98,0.00,,,0.03,Wunderground v.1.15,2013-01-13 04:36:00,
2013-01-12 23:42:00,39.1,38.6,30.17,WSW,249,3.0,20.0,98,0.00,,,0.03,Wunderground v.1.15,2013-01-13 04:42:00,
2013-01-12 23:47:00,39.1,38.6,30.16,WSW,243,2.0,20.0,98,0.00,,,0.03,Wunderground v.1.15,2013-01-13 04:47:00,
2013-01-12 23:52:00,39.1,38.6,30.16,WSW,243,2.0,20.0,98,0.00,,,0.03,Wunderground v.1.15,2013-01-13 04:52:00,
2013-01-12 23:57:00,39.0,38.5,30.16,WSW,240,2.0,20.0,98,0.00,,,0.03,Wunderground v.1.15,2013-01-13 04:57:00,